Regional Weather Roundup
Issued by NWS Glasgow, MT

Home | Current Version | Previous Version | Text Only | Print | Product List | Glossary On
Versions: 1 2 3 4 5 6 7 8 9 10 11 12 13 14 15 16 17 18 19 20 21 22 23 24 25 26 27 28 29 30 31 32 33 34 35 36 37 38 39 40 41 42 43 44 45 46 47 48 49 50
000
ASUS45 KGGW 030615
RWRGGW
HOURLY REGIONAL WEATHER ROUNDUP FOR NORTHEAST MONTANA
NATIONAL WEATHER SERVICE GLASGOW MONTANA
1200 AM MDT FRI JUL 03 2015

NOTE: "FAIR" INDICATES FEW OR NO CLOUDS BELOW 12,000 FEET WITH NO
SIGNIFICANT WEATHER AND/OR OBSTRUCTIONS TO VISISBILITY.

NORTHEAST MONTANA


CITY           SKY/WX    TMP DP  RH WIND       PRES   REMARKS
GLASGOW        CLEAR     65  54  67 VRB3      30.03S HAZE
6HR MIN TEMP:  65; 6HR MAX TEMP:  82;

PLENTYWOOD       N/A     66  57  72 N5          N/A
WOLF POINT     CLEAR     65  60  84 S3        30.03S HAZE
JORDAN           N/A     62  54  74 CALM      30.05F
WINNETT          N/A     59  51  75 NE2         N/A
SIDNEY         CLEAR     66  57  72 NW10      30.02S
GLENDIVE       CLEAR     66  57  72 N5        30.05S
SCOBEY           N/A     61  54  77 CALM      30.03S HAZE

FORT PECK REPORTS


CITY           SKY/WX    TMP DP  RH WIND       PRES   REMARKS
FORT PECK        N/A     70  59  68 E9          N/A
THE PINES        N/A     68  60  75 NE5         N/A

SOUTHEAST MONTANA


CITY           SKY/WX    TMP DP  RH WIND       PRES   REMARKS
BILLINGS       CLEAR     70  51  51 NE5       30.11S
MILES CITY     CLEAR     66  54  65 NW6       30.05S
BAKER          CLEAR     63  58  83 CALM      30.08R HAZE
LIVINGSTON     CLEAR     71  49  45 E16G25    30.11S

CENTRAL MONTANA


CITY           SKY/WX    TMP DP  RH WIND       PRES   REMARKS
HAVRE          CLEAR     67  54  63 E6        30.00F HAZE
LEWISTOWN      MOCLDY    64  53  67 E9        30.12S
GREAT FALLS    PTCLDY    70  49  47 E8        30.05F
CUT BANK       PTCLDY    67  48  50 SE5       30.05S
HELENA         CLEAR     74  48  39 W8        30.03S
BUTTE          CLEAR     71  42  35 CALM      30.14S
BOZEMAN        CLEAR     69  49  48 SE5       30.06F

WESTERN MONTANA


CITY           SKY/WX    TMP DP  RH WIND       PRES   REMARKS
MISSOULA       CLEAR     72  46  39 CALM      29.98R
KALISPELL      NOT AVBL

NORTH DAKOTA


CITY           SKY/WX    TMP DP  RH WIND       PRES   REMARKS
WILLISTON      CLEAR     67  62  84 CALM      30.02S
DICKINSON      CLEAR     61  58  90 S5        30.03S FOG
MINOT          CLOUDY    65  61  87 SW6       29.97R FOG
BISMARCK       CLOUDY    66  63  90 W3        29.99R FOG

SOUTHERN SASKATCHEWAN


CITY           SKY/WX    TMP DP  RH WIND       PRES   REMARKS
REGINA         PTCLDY    61  59  94 W5        30.01  SMOKE
ESTEVAN        CLOUDY    59  59 100 W3        30.00S SMOKE
SWIFT CURRENT  CLEAR     61  55  82 SW9       30.02S




USA.gov is the U.S. government's official web portal to all federal, state and local government web resources and services.